TimeMDT,TemperatureF,Dew PointF,Humidity,Sea Level PressureIn,VisibilityMPH,Wind Direction,Wind SpeedMPH,Gust SpeedMPH,PrecipitationIn,Events,Conditions,WindDirDegrees,DateUTC
12:53 AM,41.0,32.0,70,29.96,10.0,Calm,Calm,-,N/A,,Clear,0,2011-10-24 06:53:00
1:53 AM,42.1,34.0,73,29.95,10.0,East,3.5,-,N/A,,Mostly Cloudy,90,2011-10-24 07:53:00
4:53 AM,45.0,30.0,56,29.94,10.0,West,5.8,-,N/A,,Overcast,260,2011-10-24 10:53:00
5:53 AM,45.0,35.1,68,29.94,10.0,South,10.4,-,0.00,Rain,Light Rain,170,2011-10-24 11:53:00
6:53 AM,45.0,37.0,74,29.93,10.0,South,16.1,-,0.00,,Overcast,180,2011-10-24 12:53:00
7:53 AM,44.1,37.9,79,29.94,10.0,South,11.5,-,N/A,,Overcast,180,2011-10-24 13:53:00
8:53 AM,45.0,39.0,80,29.92,10.0,South,6.9,-,N/A,,Overcast,190,2011-10-24 14:53:00
9:53 AM,46.9,39.9,77,29.92,10.0,SSW,5.8,-,N/A,,Overcast,200,2011-10-24 15:53:00
10:53 AM,46.9,39.9,77,29.93,10.0,WSW,5.8,-,N/A,,Mostly Cloudy,250,2011-10-24 16:53:00
11:53 AM,48.0,39.0,71,29.93,10.0,NNW,6.9,-,N/A,,Overcast,340,2011-10-24 17:53:00
12:53 PM,46.0,36.0,68,29.94,10.0,NNW,17.3,-,N/A,,Overcast,330,2011-10-24 18:53:00
1:41 PM,42.8,37.4,81,29.90,7.0,WNW,11.5,-,0.02,Rain,Light Rain,300,2011-10-24 19:41:00
1:53 PM,43.0,37.9,82,29.97,6.0,West,12.7,-,0.03,Rain,Light Rain,280,2011-10-24 19:53:00
2:02 PM,42.8,37.4,81,29.91,8.0,WNW,15.0,21.9,0.01,Rain,Light Rain,290,2011-10-24 20:02:00
2:21 PM,42.8,37.4,81,29.91,10.0,WNW,11.5,-,0.02,Rain,Light Rain,290,2011-10-24 20:21:00
2:28 PM,42.8,37.4,81,29.91,10.0,West,5.8,-,0.02,Rain,Light Rain,260,2011-10-24 20:28:00
2:53 PM,45.0,39.0,80,29.95,10.0,SW,5.8,-,0.02,,Overcast,230,2011-10-24 20:53:00
4:53 PM,48.0,39.9,74,29.96,10.0,South,11.5,-,N/A,,Mostly Cloudy,190,2011-10-24 22:53:00
5:51 PM,42.8,30.2,61,29.98,10.0,NNW,16.1,23.0,N/A,,Overcast,330,2011-10-24 23:51:00
5:53 PM,42.1,30.9,65,30.03,10.0,NNW,15.0,-,N/A,,Overcast,330,2011-10-24 23:53:00
6:53 PM,39.9,32.0,73,30.06,10.0,NW,15.0,-,0.01,,Mostly Cloudy,320,2011-10-25 00:53:00
7:53 PM,37.0,28.0,70,30.12,10.0,WNW,6.9,-,N/A,,Mostly Cloudy,290,2011-10-25 01:53:00
8:53 PM,34.0,25.0,70,30.14,10.0,West,5.8,-,N/A,,Partly Cloudy,280,2011-10-25 02:53:00
9:53 PM,37.0,26.1,65,30.15,10.0,NW,10.4,-,N/A,,Clear,320,2011-10-25 03:53:00
10:53 PM,33.1,26.1,75,30.18,10.0,West,5.8,-,N/A,,Overcast,270,2011-10-25 04:53:00
11:53 PM,30.0,24.1,79,30.19,10.0,West,8.1,-,N/A,,Partly Cloudy,270,2011-10-25 05:53:00